CAPE
828 1313 1740 1604 1510 1264 1163 1721 2308 2083 2100 2077 1658 1118 1060 834 664 564 723 705 985 787 33 313 24 10 137 297 102 3 3 28 33 153 412 460 475 308 236 378 171 8 9
883 1354 1822 1807 1423 1601 1577 1779 2209 2229 1996 1990 1823 1089 991 975 933 651 883 761 570 276 78 16 35 211 344 400 166 75 5 0 0 26 139 228 269 386 171 32 74 6 4
933 1353 1579 1523 864 1528 1614 1667 2017 2012 1941 1931 1901 1650 1006 869 753 695 839 575 734 767 282 155 168 357 262 203 235 214 203 146 0 5 255 135 117 218 11 2 9 6 6
1027 1291 1273 1470 1468 1616 1653 1540 1850 1999 1904 1851 1864 1703 1265 1042 809 754 716 397 822 668 716 218 85 159 120 118 6 16 1 0 0 1 8 10 10 9 11 6 3 6 8
1130 1193 1224 1548 1566 1586 1752 1589 1662 2072 1947 1849 1566 1260 1239 1009 730 556 709 575 1027 867 692 436 7 7 9 9 9 1 0 0 0 0 0 2 1 8 6 4 5 8 8
1054 1121 1282 1450 1504 1600 1821 1750 1852 2091 1981 1516 1266 1163 998 762 583 653 690 900 752 554 489 115 6 2 0 1 0 0 0 0 0 0 0 0 2 7 7 7 7 9 9
1141 1308 1176 1437 1436 1747 1984 1890 1991 1942 1596 1285 1162 1153 827 564 509 597 710 778 645 592 238 6 0 0 0 0 0 0 0 0 0 0 0 0 4 6 7 7 8 9 9
1196 1225 1078 1027 1140 1621 1927 1801 1691 1554 1461 1362 1168 906 574 393 398 388 798 651 503 434 174 5 0 0 0 0 0 0 0 0 0 0 0 0 13 8 7 6 6 5 6
1207 1247 1084 852 646 1103 1498 1443 1407 1344 1132 1023 791 472 235 125 166 277 776 554 463 505 304 136 0 0 0 0 0 0 0 0 0 0 0 1 11 5 5 3 2 2 4
1263 1142 952 474 150 1103 1358 997 984 900 787 690 327 74 8 6 22 391 398 366 358 354 299 193 32 0 0 0 0 0 0 0 0 0 0 1 5 5 5 4 2 3 1
1098 1152 1003 366 44 66 1089 707 529 518 304 65 0 0 4 3 50 193 111 187 165 189 242 233 83 0 0 0 0 0 0 0 0 0 0 7 2 2 3 3 2 2 2
820 1066 815 211 44 11 273 508 647 379 267 52 2 10 0 0 17 132 67 79 147 75 75 57 11 0 0 0 0 0 0 0 0 0 0 5 1 1 0 1 1 1 1
432 1121 719 205 151 21 16 575 621 198 146 50 23 1 2 5 21 128 119 77 80 0 1 0 0 0 0 0 0 0 0 0 0 0 0 0 0 0 0 0 0 0 0
314 742 694 319 152 14 10 11 86 251 112 19 8 6 15 23 18 27 58 95 19 35 1 0 0 0 0 0 0 0 0 0 0 0 0 0 1 0 0 0 0 0 0
123 492 588 388 111 40 4 1 4 7 9 3 3 14 10 21 22 84 97 144 58 29 3 0 0 0 0 0 0 0 0 0 0 0 2 0 0 1 0 0 0 0 0
163 406 697 539 77 225 115 3 0 1 2 4 4 18 35 17 9 8 10 35 11 0 0 0 0 0 0 0 0 0 0 0 0 0 0 0 0 3 53 6 2 1 0
0 572 775 626 200 270 246 167 6 0 0 4 3 9 22 17 8 1 0 0 0 0 0 0 0 0 1 11 11 0 0 0 0 0 0 0 0 0 8 185 121 116 58
0 470 1040 743 452 233 212 166 64 0 0 0 4 5 5 1 0 0 0 0 0 0 0 0 0 8 72 66 51 24 10 0 0 0 0 0 0 0 1 19 113 162 169
0 167 810 780 647 449 427 298 220 159 6 0 0 0 0 0 0 0 0 0 0 4 21 40 62 90 108 82 25 12 0 0 0 0 0 0 0 0 22 4 0 16 85
7 159 935 755 685 719 709 633 437 435 361 197 10 0 0 0 0 0 0 10 37 65 70 63 80 82 102 59 0 0 5 0 0 0 0 0 0 0 16 21 43 13 0
196 478 695 886 785 632 368 302 296 229 237 248 347 301 173 113 111 93 106 112 139 159 143 127 166 157 111 32 41 27 10 0 3 0 6 0 8 29 57 75 104 53 38
299 399 838 839 538 605 632 476 367 291 230 190 242 251 216 209 243 254 263 234 206 214 237 175 128 85 217 79 44 31 60 37 0 0 0 1 1 5 15 0 7 17 0
157 322 555 640 628 610 656 534 389 380 244 218 254 141 81 97 118 173 176 205 223 206 193 227 265 331 275 27 0 95 97 94 74 5 0 0 0 0 0 0 0 0 0
182 245 365 602 578 655 1012 544 445 364 334 213 357 315 113 30 46 81 53 58 132 177 166 151 173 215 9 6 9 39 142 158 91 40 0 0 0 0 0 0 0 0 0
156 7 224 309 387 336 711 321 317 582 693 610 510 342 220 100 97 48 51 103 59 102 32 2 0 1 9 91 178 108 65 81 45 44 10 0 0 0 0 0 0 0 0
5 26 81 112 108 143 127 110 136 123 127 192 356 355 258 167 108 53 65 63 51 37 4 22 76 37 57 110 145 147 101 53 43 63 18 3 1 0 0 0 0 0 0
CIN
-201 -103 -20 -21 -16 -7 -10 -0 -0 -0 -0 -0 -0 -0 -0 -0 -0 -1 -0 -1 -0 -0 -43 -41 -15 -0 -69 -45 -72 -0 -0 -58 -54 -115 -44 -36 -28 -60 -81 -43 -98 -0 -0
-180 -118 -20 -12 -20 -0 -0 -0 -0 -0 -0 -0 -0 -0 -0 -0 -0 -0 -0 -0 -5 -49 -119 -0 -122 -75 -42 -30 -96 -94 -0 -0 -0 -40 -123 -87 -62 -34 -97 -43 -175 -0 -0
-147 -108 -42 -28 -95 -4 -0 -0 -0 -0 -0 -0 -0 -0 -0 -0 -0 -0 -0 -10 -4 -2 -67 -102 -99 -42 -68 -88 -79 -84 -95 -95 -0 -15 -72 -89 -93 -76 -0 -0 -0 -0 -0
-108 -80 -71 -23 -8 -0 -0 -0 -0 -0 -0 -0 -0 -0 -0 -0 -0 -0 -0 -13 -0 -6 -3 -90 -142 -109 -126 -130 -0 -0 -0 -0 -0 -1 -0 -0 -0 -0 -0 -0 -0 -0 -0
-88 -55 -51 -11 -2 -0 -0 -0 -0 -0 -0 -0 -0 -0 -0 -0 -0 -0 -0 -2 -0 -0 -6 -38 -0 -0 -0 -0 -0 -0 -0 -0 -0 -0 -0 -0 -0 -0 -0 -0 -0 -0 -0
-64 -28 -29 -3 -1 -0 -0 -0 -0 -0 -0 -0 -0 -0 -0 -5 -10 -0 -0 -0 -0 -14 -25 -139 -0 -0 -0 -0 -0 -0 -0 -0 -0 -0 -0 -0 -0 -0 -0 -0 -0 -0 -0
-30 -3 -4 -0 -0 -0 -0 -0 -0 -0 -0 -0 -0 -0 -0 -14 -15 -1 -2 -0 -1 -10 -78 -0 -0 -0 -0 -0 -0 -0 -0 -0 -0 -0 -0 -0 -0 -0 -0 -0 -0 -0 -0
-5 -1 -0 -5 -0 -0 -0 -0 -0 -0 -0 -0 -0 -0 -2 -23 -19 -13 -0 -0 -6 -18 -94 -0 -0 -0 -0 -0 -0 -0 -0 -0 -0 -0 -0 -0 -0 -0 -0 -0 -0 -0 -0
-0 -0 -0 -3 -13 -0 -1 -0 -0 -0 -0 -0 -3 -9 -62 -133 -91 -27 -0 -1 -9 -6 -32 -106 -0 -0 -0 -0 -0 -0 -0 -0 -0 -0 -0 -0 -0 -0 -0 -0 -0 -0 -0
-1 -0 -0 -21 -103 -1 -0 -2 -1 -2 -4 -5 -36 -135 -11 -5 -176 -10 -15 -19 -17 -13 -23 -63 -48 -0 -0 -0 -0 -0 -0 -0 -0 -0 -0 -0 -0 -0 -0 -0 -0 -0 -0
-0 -0 -0 -19 -127 -115 -0 -3 -8 -10 -22 -70 -0 -5 -1 -0 -154 -81 -111 -61 -69 -52 -28 -30 -112 -3 -0 -0 -0 -0 -0 -0 -0 -0 -0 -0 -0 -0 -0 -0 -0 -0 -0
-0 -0 -0 -32 -110 -0 -47 -0 -0 -3 -12 -93 -3 -0 -0 -0 -0 -110 -61 -45 -76 -25 -25 -45 -33 -0 -0 -0 -0 -0 -0 -0 -0 -0 -0 -0 -0 -0 -0 -0 -0 -0 -0
-1 -0 -0 -1 -17 -21 -0 -0 -0 -16 -31 -91 -55 -0 -0 -0 -0 -95 -74 -24 -27 -0 -0 -0 -0 -0 -0 -0 -0 -0 -0 -0 -0 -0 -0 -0 -0 -0 -0 -0 -0 -0 -0
-67 -0 -0 -0 -23 -0 -0 -0 -72 -1 -37 -0 -0 -0 -0 -0 -0 -0 -35 -24 -14 -46 -0 -0 -0 -0 -0 -0 -0 -0 -0 -0 -0 -0 -0 -0 -0 -0 -0 -0 -0 -0 -0
-70 -0 -0 -0 -42 -129 -0 -0 -0 -0 -0 -0 -0 -0 -1 -0 -0 -40 -38 -47 -61 -82 -44 -0 -0 -0 -0 -0 -0 -0 -0 -0 -0 -0 -0 -0 -0 -0 -0 -0 -0 -0 -0
-106 -0 -0 -0 -31 -11 -86 -112 -0 -0 -0 -0 -0 -0 -37 -0 -0 -0 -7 -87 -47 -0 -0 -0 -0 -0 -0 -0 -0 -0 -0 -0 -0 -0 -0 -0 -0 -0 -0 -0 -0 -0 -0
-3 -0 -0 -0 -11 -1 -21 -51 -77 -0 -0 -0 -0 -0 -0 -0 -0 -0 -0 -0 -0 -0 -0 -0 -0 -0 -48 -98 -77 -0 -0 -0 -0 -0 -0 -0 -0 -0 -27 -0 -0 -0 -0
-0 -9 -0 -0 -0 -11 -42 -40 -85 -4 -0 -0 -0 -0 -0 -0 -0 -0 -0 -0 -0 -0 -0 -0 -0 -145 -46 -36 -48 -72 -105 -0 -0 -0 -0 -0 -0 -0 -12 -33 -10 -0 -0
-0 -35 -4 -0 -0 -0 -13 -26 -28 -41 -34 -0 -0 -0 -0 -0 -0 -0 -0 -0 -0 -76 -125 -96 -63 -28 -16 -21 -69 -107 -0 -0 -0 -0 -0 -0 -0 -17 -42 -4 -0 -26 -21
-65 -34 -0 -36 -0 -0 -0 -0 -0 -1 -0 -17 -16 -0 -0 -0 -0 -0 -0 -95 -107 -74 -62 -56 -28 -17 -12 -35 -0 -14 -84 -0 -0 -0 -0 -0 -0 -0 -80 -46 -7 -8 -0
-1 -0 -0 -1 -2 -0 -0 -21 -5 -3 -5 -0 -0 -1 -31 -59 -68 -55 -42 -40 -24 -12 -13 -6 -1 -2 -15 -82 -46 -31 -45 -0 -85 -0 -71 -0 -49 -66 -52 -12 -0 -19 -28
-1 -1 -0 -2 -5 -5 -0 -40 -38 -15 -23 -37 -29 -55 -53 -39 -19 -12 -6 -6 -1 -0 -0 -4 -25 -31 -1 -73 -38 -44 -16 -27 -0 -0 -0 -78 -36 -59 -75 -0 -103 -48 -0
-2 -5 -1 -0 -0 -2 -7 -43 -21 -8 -12 -39 -12 -60 -100 -86 -74 -38 -21 -7 -4 -7 -10 -4 -0 -0 -1 -67 -0 -36 -9 -0 -4 -11 -0 -0 -0 -0 -0 -0 -0 -0 -0
-0 -1 -22 -0 -1 -0 -0 -37 -44 -33 -15 -58 -50 -52 -126 -179 -164 -135 -155 -117 -66 -33 -29 -29 -25 -36 -165 -114 -59 -50 -5 -9 -22 -71 -0 -0 -0 -0 -0 -0 -0 -0 -0
-6 -18 -0 -14 -6 -22 -9 -24 -39 -0 -0 -5 -6 -41 -82 -137 -128 -150 -111 -64 -78 -64 -101 -178 -0 -236 -138 -50 -1 -10 -24 -37 -89 -111 -3 -0 -0 -0 -0 -0 -0 -0 -0
-43 -78 -4 -9 -24 -25 -31 -30 -37 -53 -59 -65 -32 -26 -46 -73 -104 -109 -96 -67 -67 -53 -52 -44 -49 -93 -72 -10 -1 -3 -25 -42 -125 -152 -4 -3 -0 -0 -0 -0 -0 -0 -0
Wind_Speed
17 21 21 20 19 17 16 16 16 19 18 19 19 20 21 19 19 19 18 19 17 17 18 19 19 17 16 16 17 17 16 16 16 16 15 16 18 18 17 16 16 16 17
22 24 22 21 19 18 16 16 16 18 19 19 19 20 21 20 19 18 17 19 19 20 18 19 19 17 17 18 19 18 16 16 14 11 14 14 15 18 20 18 16 16 16
23 24 23 21 22 19 17 18 17 19 20 19 20 21 21 21 19 18 16 16 16 18 19 18 18 17 18 18 18 17 15 14 11 5 10 11 15 17 17 18 16 16 16
21 20 22 21 20 20 19 18 18 20 20 20 20 20 21 20 19 18 16 16 17 17 17 17 16 16 16 16 17 15 15 13 10 5 9 11 13 16 15 16 16 16 16
20 19 19 21 20 19 19 20 18 20 20 20 20 20 20 19 19 18 18 16 17 16 15 17 16 15 15 15 15 14 14 13 5 10 11 10 10 13 15 14 16 15 16
20 20 21 21 20 18 18 19 19 20 20 20 20 20 20 19 18 17 16 18 17 16 16 17 15 15 15 14 14 14 13 7 6 11 11 11 13 14 15 15 15 15 15
21 16 20 20 20 18 17 19 19 20 20 21 21 21 21 19 18 17 16 18 16 16 16 16 16 16 15 15 15 14 11 4 11 10 11 11 12 14 14 14 14 14 15
18 18 19 18 18 16 17 19 19 20 21 21 21 21 20 19 18 17 17 17 16 16 17 17 16 16 16 15 14 13 8 4 9 10 11 10 11 13 13 13 13 13 14
17 19 18 19 16 13 15 18 19 21 21 21 20 19 18 18 17 17 18 17 16 16 16 15 16 15 15 15 13 12 8 5 9 7 9 8 9 12 12 12 12 13 12
14 18 19 18 18 18 15 13 17 19 19 19 20 16 13 13 15 15 16 16 15 14 15 14 16 15 14 13 12 11 7 4 9 8 8 7 10 11 11 11 11 11 11
14 17 19 18 18 19 17 13 12 12 14 17 18 15 14 13 16 15 13 14 15 14 14 14 15 14 12 10 10 7 8 5 6 5 6 7 9 10 10 10 10 10 10
17 18 19 19 18 18 14 15 15 14 14 12 13 17 13 15 14 13 13 14 15 12 12 14 14 13 10 7 6 6 4 5 5 5 6 6 8 9 9 9 9 9 8
16 17 19 19 17 18 14 13 7 6 6 9 15 15 12 11 11 9 7 7 10 9 8 9 9 6 6 5 5 4 4 5 4 4 7 3 7 8 8 7 7 7 7
14 18 18 18 18 17 12 11 12 10 9 9 12 15 10 7 12 11 7 9 8 8 9 8 5 6 6 6 6 5 4 4 3 3 7 2 3 6 6 7 6 6 5
18 19 17 18 18 16 16 12 12 11 10 11 12 14 10 11 11 11 10 10 9 8 8 7 6 6 6 6 4 3 3 3 3 2 2 6 3 4 6 6 6 6 5
17 16 18 19 19 18 14 16 12 11 11 11 11 12 13 11 10 10 10 9 8 8 7 6 5 5 5 4 4 4 4 3 3 3 3 6 6 5 6 7 7 6 6
9 19 20 22 20 19 13 14 10 11 11 10 10 13 13 11 11 11 9 8 7 7 8 6 5 5 4 3 4 4 4 4 4 5 4 4 6 8 8 9 7 9 9
16 17 21 16 20 20 17 10 10 11 11 10 10 10 13 12 11 10 8 8 8 7 6 6 5 5 4 3 3 3 3 4 5 5 4 4 5 4 9 10 9 8 11
20 19 23 20 21 20 18 13 11 12 10 10 10 10 13 12 11 8 7 7 9 6 6 5 5 4 4 3 2 3 3 3 4 4 6 6 6 5 5 9 9 7 7
19 24 23 21 21 20 13 12 9 11 10 10 10 10 13 10 11 9 7 8 8 6 6 5 5 4 2 2 3 4 4 5 5 5 5 5 6 7 6 6 5 6 5
21 24 20 21 22 14 13 12 10 11 8 9 9 12 13 11 12 10 7 7 6 6 6 7 5 5 4 4 4 4 4 4 4 3 4 5 4 5 5 5 3 3 3
22 21 19 17 16 14 11 10 8 8 9 9 9 11 12 12 12 10 8 7 8 6 7 7 7 4 5 5 3 2 2 4 3 3 2 2 6 5 2 2 2 2 1
16 15 16 14 14 14 14 10 8 8 6 8 10 9 9 12 11 10 9 6 6 5 6 7 7 7 6 2 4 3 2 3 1 3 2 2 0 2 1 2 2 2 2
17 19 15 14 13 15 16 11 15 12 11 9 9 9 9 11 10 9 8 8 8 6 7 7 7 6 1 2 2 4 4 4 3 3 2 2 2 2 2 2 2 3 2
18 7 6 11 10 8 12 11 9 12 9 7 7 10 9 8 9 10 8 8 8 6 5 6 6 8 6 4 4 2 3 3 3 3 2 1 2 3 3 4 2 1 1
11 12 7 6 9 8 8 8 12 9 6 6 8 8 6 6 6 8 7 7 5 5 4 6 7 9 6 6 5 5 4 3 2 3 3 3 3 2 3 4 4 4 4
Wind_Direction
162 157 158 159 153 152 150 140 136 145 143 143 144 144 135 134 131 127 131 124 123 115 112 111 109 111 109 102 103 95 89 85 81 77 74 80 82 78 73 63 71 66 61
162 155 160 157 158 154 154 145 139 141 144 145 144 142 136 135 132 128 128 127 124 118 114 110 118 115 102 102 104 99 95 90 87 89 101 85 77 77 74 67 64 69 68
163 157 159 158 162 156 157 152 149 146 146 150 147 142 142 140 135 128 134 129 128 124 120 120 111 102 98 100 101 96 92 88 83 72 95 86 82 78 76 70 73 74 73
163 157 161 157 161 156 157 158 156 151 152 153 150 146 144 139 132 139 134 129 126 120 118 115 111 104 105 100 101 92 88 81 58 49 71 81 82 67 68 75 78 81 79
163 165 152 157 158 158 157 161 160 156 156 156 152 150 142 136 140 141 136 131 116 113 112 119 114 110 107 101 98 91 83 76 67 85 76 72 78 75 77 81 84 77 72
165 167 148 154 158 162 159 163 162 158 154 153 150 143 139 136 143 143 133 116 115 118 117 116 115 111 108 106 102 98 93 96 107 87 90 78 77 82 82 84 83 80 77
171 156 158 156 158 162 158 159 159 157 154 152 145 142 134 143 144 137 124 118 123 126 123 120 118 116 113 109 106 102 97 47 95 90 86 84 85 88 87 84 82 80 79
174 158 161 154 159 161 155 156 154 151 148 145 144 136 138 145 143 137 126 127 128 129 127 122 121 119 116 111 108 103 99 112 97 89 86 85 85 89 89 87 86 83 82
182 165 161 163 160 157 147 150 150 150 149 146 137 133 143 143 146 143 134 133 132 134 127 124 121 120 116 113 110 106 91 25 94 93 101 97 92 95 93 92 91 89 85
178 171 166 165 165 164 152 141 148 149 147 141 131 135 131 136 150 152 135 132 126 122 126 126 122 119 118 115 114 110 117 215 97 101 87 89 95 95 94 92 91 91 88
185 178 169 167 166 169 156 141 131 130 130 128 119 122 139 154 163 153 137 132 124 123 124 128 126 122 115 111 116 130 209 100 99 92 94 95 99 98 96 93 90 88 88
190 181 171 168 167 164 164 157 154 148 157 142 143 156 166 156 163 162 139 128 123 120 122 125 126 131 181 142 132 181 112 116 102 100 97 117 109 105 104 101 99 97 95
188 170 172 168 162 167 164 173 158 165 160 157 165 170 163 162 160 151 141 138 140 157 141 144 148 161 139 140 145 135 130 112 116 117 108 125 125 121 119 116 114 111 109
205 164 167 168 166 164 158 170 170 165 168 167 167 163 161 165 169 148 161 163 162 175 158 167 170 154 153 148 141 135 158 141 138 136 129 172 156 143 141 137 133 128 122
180 165 165 164 170 162 167 165 166 168 173 171 172 166 169 166 167 167 166 172 173 168 169 168 169 163 165 159 152 153 149 176 171 169 154 170 228 199 173 167 166 158 153
151 167 160 167 175 163 176 165 163 160 170 167 173 176 174 175 169 170 166 170 168 171 164 168 167 169 168 182 171 168 168 174 204 209 219 172 208 231 225 207 196 190 187
143 164 169 169 173 171 166 165 161 161 163 171 172 178 182 175 172 170 167 167 165 164 162 166 171 180 171 170 185 190 193 199 205 212 220 234 177 213 235 240 225 220 217
143 162 179 174 178 172 161 164 156 162 166 168 175 175 184 179 174 172 171 168 166 164 168 171 176 182 190 199 196 200 221 219 237 231 223 222 222 226 197 232 242 239 230
163 195 180 176 179 176 165 159 157 173 167 167 173 179 184 183 183 180 178 167 166 167 170 167 178 194 188 205 223 230 233 239 244 242 241 228 231 239 238 171 221 241 252
198 199 187 168 178 177 164 157 162 171 173 172 178 181 183 184 183 186 181 172 175 172 171 171 177 181 205 196 215 239 235 234 227 228 235 230 230 228 235 249 213 197 221
200 193 190 175 169 164 164 154 158 173 174 181 185 184 183 187 186 190 184 178 180 183 177 175 171 183 194 205 236 230 240 263 256 274 291 285 245 238 240 248 272 260 126
190 188 181 182 160 164 169 159 156 162 180 180 186 190 189 189 189 190 186 188 190 187 181 184 185 177 217 213 244 271 251 178 171 170 123 337 313 346 3 28 238 243 234
210 203 178 161 162 157 163 143 148 144 150 178 189 183 189 191 188 188 188 184 184 183 187 195 200 207 215 166 223 276 242 252 322 153 108 76 349 269 337 355 79 73 126
200 194 160 146 149 161 166 156 160 169 170 194 187 178 180 187 177 178 166 180 174 181 183 186 197 205 97 171 182 233 259 307 287 295 156 133 73 342 303 255 199 164 158
168 125 136 137 144 140 152 169 162 183 188 165 168 169 170 166 173 168 176 179 170 188 200 186 199 187 193 219 221 185 214 238 278 256 309 233 265 212 217 240 209 159 183
154 148 151 161 137 164 148 153 167 146 170 160 158 163 156 159 154 164 171 170 166 187 213 210 225 210 199 218 225 226 220 191 203 204 227 249 246 234 212 223 226 213 188